Time,TemperatureF,DewpointF,PressureIn,WindDirection,WindDirectionDegrees,WindSpeedMPH,WindSpeedGustMPH,Humidity,HourlyPrecipIn,Conditions,Clouds,dailyrainin,SoftwareType,DateUTC
2013-03-04 00:00:00,52.3,41.3,29.76,NNW,332,5.0,8.0,66,0.00,CLR,CLR,0.00,WeatherDisplay:10.37,2013-03-04 05:00:00,
2013-03-04 00:30:00,52.0,41.0,29.76,NNW,336,3.0,10.0,66,0.00,CLR,CLR,0.00,WeatherDisplay:10.37,2013-03-04 05:30:00,
2013-03-04 01:00:00,52.3,40.9,29.75,NW,322,3.0,6.0,65,0.00,CLR,CLR,0.00,WeatherDisplay:10.37,2013-03-04 06:00:00,
2013-03-04 01:30:00,52.5,40.7,29.75,NW,309,3.0,10.0,64,0.00,CLR,CLR,0.00,WeatherDisplay:10.37,2013-03-04 06:30:00,
2013-03-04 02:00:00,52.2,40.3,29.74,NNW,329,3.0,6.0,64,0.00,CLR,CLR,0.00,WeatherDisplay:10.37,2013-03-04 07:00:00,
2013-03-04 02:30:00,52.0,39.4,29.73,NNW,336,3.0,8.0,62,0.00,CLR,CLR,0.00,WeatherDisplay:10.37,2013-03-04 07:30:00,
2013-03-04 03:00:00,51.1,39.3,29.72,NW,322,3.0,6.0,64,0.00,CLR,CLR,0.00,WeatherDisplay:10.37,2013-03-04 08:00:00,
2013-03-04 03:30:00,50.0,39.5,29.73,NNW,338,0.0,5.0,67,0.00,CLR,CLR,0.00,WeatherDisplay:10.37,2013-03-04 08:30:00,
2013-03-04 04:00:00,46.9,38.7,29.73,ESE,112,0.0,2.0,73,0.00,CLR,CLR,0.00,WeatherDisplay:10.37,2013-03-04 09:00:00,
2013-03-04 04:30:00,45.7,38.2,29.72,ESE,112,0.0,0.0,75,0.00,CLR,CLR,0.00,WeatherDisplay:10.37,2013-03-04 09:30:00,
2013-03-04 05:00:00,43.9,37.5,29.75,ESE,112,0.0,0.0,78,0.00,CLR,CLR,0.00,WeatherDisplay:10.37,2013-03-04 10:00:00,
2013-03-04 05:30:00,42.8,36.7,29.76,ENE,68,1.0,2.0,79,0.00,CLR,CLR,0.00,WeatherDisplay:10.37,2013-03-04 10:30:00,
2013-03-04 06:00:00,42.3,36.8,29.77,East,90,0.0,0.0,81,0.00,CLR,CLR,0.00,WeatherDisplay:10.37,2013-03-04 11:00:00,
2013-03-04 06:30:00,41.7,36.6,29.78,ENE,59,0.0,0.0,82,0.00,CLR,CLR,0.00,WeatherDisplay:10.37,2013-03-04 11:30:00,
2013-03-04 07:00:00,41.2,36.4,29.79,ENE,68,0.0,0.0,83,0.00,CLR,CLR,0.00,WeatherDisplay:10.37,2013-03-04 12:00:00,
2013-03-04 07:30:00,41.7,36.9,29.80,ENE,68,0.0,0.0,83,0.00,CLR,CLR,0.00,WeatherDisplay:10.37,2013-03-04 12:30:00,
2013-03-04 08:00:00,43.7,37.9,29.80,ENE,61,0.0,3.0,80,0.00,CLR,CLR,0.00,WeatherDisplay:10.37,2013-03-04 13:00:00,
2013-03-04 08:30:00,46.6,34.7,29.82,NE,42,3.0,5.0,63,0.00,CLR,CLR,0.00,WeatherDisplay:10.37,2013-03-04 13:30:00,
2013-03-04 09:00:00,48.9,34.8,29.82,NE,43,2.0,9.0,58,0.00,CLR,CLR,0.00,WeatherDisplay:10.37,2013-03-04 14:00:00,
2013-03-04 09:30:00,50.5,35.9,29.83,NE,41,1.0,7.0,57,0.00,CLR,CLR,0.00,WeatherDisplay:10.37,2013-03-04 14:30:00,
2013-03-04 10:00:00,53.4,36.7,29.82,ENE,58,0.0,6.0,53,0.00,CLR,CLR,0.00,WeatherDisplay:10.37,2013-03-04 15:00:00,
2013-03-04 10:30:00,57.0,38.5,29.82,NE,34,1.0,9.0,50,0.00,CLR,CLR,0.00,WeatherDisplay:10.37,2013-03-04 15:30:00,
2013-03-04 11:00:00,59.5,38.7,29.82,NE,52,3.0,6.0,46,0.00,CLR,CLR,0.00,WeatherDisplay:10.37,2013-03-04 16:00:00,
2013-03-04 11:30:00,73.2,43.2,29.80,North,10,3.0,6.0,34,0.00,CLR,CLR,0.00,WeatherDisplay:10.37,2013-03-04 16:30:00,
2013-03-04 12:00:00,60.6,37.4,29.79,WNW,302,2.0,7.0,42,0.00,CLR,CLR,0.00,WeatherDisplay:10.37,2013-03-04 17:00:00,
2013-03-04 12:30:00,60.4,37.2,29.78,WNW,290,2.0,5.0,42,0.00,CLR,CLR,0.00,WeatherDisplay:10.37,2013-03-04 17:30:00,
2013-03-04 13:00:00,61.9,36.6,29.76,North,353,0.0,9.0,39,0.00,CLR,CLR,0.00,WeatherDisplay:10.37,2013-03-04 18:00:00,
2013-03-04 13:30:00,62.8,36.8,29.75,NNW,327,1.0,6.0,38,0.00,CLR,CLR,0.00,WeatherDisplay:10.37,2013-03-04 18:30:00,
2013-03-04 14:00:00,63.7,36.2,29.74,NNW,337,0.0,7.0,36,0.00,CLR,CLR,0.00,WeatherDisplay:10.37,2013-03-04 19:00:00,
2013-03-04 14:30:00,63.0,41.8,29.73,NW,312,9.0,9.0,46,0.00,CLR,CLR,0.00,WeatherDisplay:10.37,2013-03-04 19:30:00,
2013-03-04 15:00:00,63.3,41.0,29.72,West,264,0.0,7.0,44,0.00,CLR,CLR,0.00,WeatherDisplay:10.37,2013-03-04 20:00:00,
2013-03-04 15:30:00,63.1,40.9,29.72,NW,304,2.0,8.0,44,0.00,CLR,CLR,0.00,WeatherDisplay:10.37,2013-03-04 20:30:00,
2013-03-04 16:00:00,61.9,42.0,29.72,WNW,285,0.0,8.0,48,0.00,CLR,CLR,0.00,WeatherDisplay:10.37,2013-03-04 21:00:00,
2013-03-04 16:30:00,60.6,41.9,29.73,WNW,284,2.0,4.0,50,0.00,CLR,CLR,0.00,WeatherDisplay:10.37,2013-03-04 21:30:00,
2013-03-04 17:00:00,60.6,41.3,29.73,WNW,294,3.0,6.0,49,0.00,CLR,CLR,0.00,WeatherDisplay:10.37,2013-03-04 22:00:00,
2013-03-04 17:30:00,68.4,46.8,29.73,NW,307,0.0,5.0,46,0.00,CLR,CLR,0.00,WeatherDisplay:10.37,2013-03-04 22:30:00,
2013-03-04 18:00:00,69.4,46.0,29.74,NW,315,0.0,8.0,43,0.00,CLR,CLR,0.00,WeatherDisplay:10.37,2013-03-04 23:00:00,
2013-03-04 18:30:00,58.6,43.0,29.75,WNW,303,2.0,3.0,56,0.00,CLR,CLR,0.00,WeatherDisplay:10.37,2013-03-04 23:30:00,
2013-03-04 19:00:00,56.8,43.5,29.74,NW,326,1.0,4.0,61,0.00,CLR,CLR,0.00,WeatherDisplay:10.37,2013-03-05 00:00:00,
2013-03-04 19:30:00,55.6,42.8,29.75,NW,325,0.0,3.0,62,0.00,CLR,CLR,0.00,WeatherDisplay:10.37,2013-03-05 00:30:00,
2013-03-04 20:00:00,54.1,43.0,29.75,NW,315,0.0,0.0,66,0.00,CLR,CLR,0.00,WeatherDisplay:10.37,2013-03-05 01:00:00,
2013-03-04 20:30:00,53.1,42.8,29.74,NW,315,0.0,0.0,68,0.00,CLR,CLR,0.00,WeatherDisplay:10.37,2013-03-05 01:30:00,
2013-03-04 21:00:00,51.4,42.7,29.75,NW,315,0.0,0.0,72,0.00,CLR,CLR,0.00,WeatherDisplay:10.37,2013-03-05 02:00:00,
2013-03-04 21:30:00,50.7,42.7,29.76,NW,315,0.0,0.0,74,0.00,CLR,CLR,0.00,WeatherDisplay:10.37,2013-03-05 02:30:00,
2013-03-04 22:00:00,49.6,42.4,29.76,NW,315,0.0,0.0,76,0.00,CLR,CLR,0.00,WeatherDisplay:10.37,2013-03-05 03:00:00,
2013-03-04 22:30:00,49.1,42.9,29.77,NW,315,0.0,0.0,79,0.00,CLR,CLR,0.00,WeatherDisplay:10.37,2013-03-05 03:30:00,
2013-03-04 23:00:00,48.0,42.1,29.77,NW,315,0.0,0.0,80,0.00,CLR,CLR,0.00,WeatherDisplay:10.37,2013-03-05 04:00:00,
2013-03-04 23:30:00,47.8,42.3,29.77,NW,315,0.0,0.0,81,0.00,CLR,CLR,0.00,WeatherDisplay:10.37,2013-03-05 04:30:00,